Regional Weather Roundup
Issued by NWS

Home | Current Version | Previous Version | Graphics & Text | Print | Product List | Glossary On
Versions: 1 2 3 4 5 6 7 8 9 10 11 12 13 14 15 16 17 18 19 20 21 22 23 24 25 26 27 28 29 30 31 32 33 34 35 36 37 38 39 40 41 42 43 44 45 46 47 48 49 50
000
ASUS43 KBIS 210710
RWRND

NORTH DAKOTA REGIONAL WEATHER ROUNDUP
NATIONAL WEATHER SERVICE BISMARCK ND
200 AM CDT SAT OCT 21 2017

NOTE: "FAIR" INDICATES FEW OR NO CLOUDS BELOW 12,000 FEET WITH NO
SIGNIFICANT WEATHER AND/OR OBSTRUCTIONS TO VISIBILITY.


NDZ001>003-009>011-017-210800-
NORTHWEST NORTH DAKOTA

CITY           SKY/WX    TMP DP  RH WIND       PRES   REMARKS
WILLISTON        N/A    N/A N/A N/A MISG      29.29S
MINOT          CLEAR     62  42  47 SW25G32   29.19R
MINOT AFB      CLEAR     61  44  54 W23G30    29.17R
$$

NDZ018>021-031>035-040>046-210800-
SOUTHWEST NORTH DAKOTA

CITY           SKY/WX    TMP DP  RH WIND       PRES   REMARKS
BISMARCK       CLOUDY    64  40  41 NW16      29.30R
DICKINSON      PTCLDY    54  34  46 W18       29.36R
GARRISON         N/A     57  32  38 W22G32    29.27R
HETTINGER ARPT PTCLDY    51  40  65 W14       29.44R
$$

NDZ004>008-012>016-024-026-027-054-210800-
NORTHEAST NORTH DAKOTA

CITY           SKY/WX    TMP DP  RH WIND       PRES   REMARKS
GRAND FORKS    CLOUDY    68  58  70 S18G32    29.35F
GRND FRKS AFB  CLOUDY    66  56  70 S23G30    29.34F
DEVILS LAKE    CLEAR     61  53  75 S17       29.26F
$$

NDZ022-023-025-028>030-036>039-047>053-210800-
SOUTHEAST NORTH DAKOTA

CITY           SKY/WX    TMP DP  RH WIND       PRES   REMARKS
FARGO          PTCLDY    68  58  70 S22G35    29.39F
JAMESTOWN      PTCLDY    63  56  78 S14G22    29.30F
$$




USA.gov is the U.S. government's official web portal to all federal, state and local government web resources and services.